Location: Kumla
(59.1265°N, 15.1401°E)
Time: 18:00:34
(UTC+01:00)

Transit 2A - Pass Details

Date: 10 December 2023
Orbit: 600 x 953 km, 66.7° (Epoch: 27 February)

Event Time Altitude Azimuth Distance (km) Brightness Sun altitude
Rises 13:06:23 0° 158° (SSE) 3,115 10.1 6.5°
Reaches altitude 10° 13:10:35 10° 124° (SE) 2,112 8.5 6.4°
Maximum altitude 13:11:53 11° 108° (ESE) 2,018 8.2 6.3°
Drops below altitude 10° 13:13:15 10° 91° (E) 2,075 8.1 6.3°
Sets 13:17:07 0° 57° (ENE) 2,920 8.5 6.1°
